Regional Weather Roundup
Issued by NWS Boston, MA

Home | Current Version | Previous Version | Text Only | Print | Product List | Glossary On
Versions: 1 2 3 4 5 6 7 8 9 10 11 12 13 14 15 16 17 18 19 20 21 22 23 24 25 26 27 28 29 30 31 32 33 34 35 36 37 38 39 40 41 42 43 44 45 46 47 48 49 50
000
ASUS41 KBOX 030910
RWRBOX

REGIONAL WEATHER ROUNDUP
NATIONAL WEATHER SERVICE TAUNTON MA
500 AM EDT MON AUG 03 2015

NOTE:  "FAIR" INDICATES FEW OR NO CLOUDS BELOW 12,000 FEET WITH NO
SIGNIFICANT WEATHER AND/OR OBSTRUCTIONS TO VISIBILITY.  THE FOLLOWING
OBSERVATION LOCATIONS DO NOT REPORT PRESENT WEATHER...PROVINCETOWN...
SMITHFIELD...BLOCK ISLAND...KEENE...AND OXFORD.

MAZALL-031000-
EASTERN MASSACHUSETTS

CITY           SKY/WX    TMP DP  RH WIND       PRES   REMARKS
BOSTON         PTCLDY    68  66  93 S6        29.84F
BEVERLY        CLEAR     67  63  87 S3        29.83S
LAWRENCE       CLEAR     67  64  90 SW3       29.85S
BEDFORD        CLEAR     66  63  90 SW5       29.82S
BLUE HILL        N/A     68  66  93 S12       29.85F
NORWOOD        FOG       61  61 100 CALM      29.85S VSB 1/4
MARSHFIELD     CLEAR     70  70 100 S6        29.88S
PLYMOUTH       PTCLDY    70  70 100 S5        29.88R
TAUNTON        MOCLDY    69  68  96 SE6       29.86S
NEW BEDFORD    PTCLDY    68  68 100 SW3       29.86F FOG
$$

MAZALL-031000-
CAPE COD AND THE ISLANDS

CITY           SKY/WX    TMP DP  RH WIND       PRES   REMARKS
FALMOUTH       MOCLDY    70  70 100 S6        29.88S
HYANNIS        PTCLDY    74  70  87 SW6       29.88R
CHATHAM        PTCLDY    67  67 100 CALM      29.91R
PROVINCETOWN   CLEAR     72  64  78 S8        29.88S
NANTUCKET      PTCLDY    71  69  93 S6        29.90R
MARTHAS VNYRD  PTCLDY    71  70  96 S6        29.89R
$$

MAZALL-031000-
CENTRAL AND WESTERN MASSACHUSETTS

CITY           SKY/WX    TMP DP  RH WIND       PRES   REMARKS
WORCESTER      CLEAR     65  63  93 SW10      29.87R
FITCHBURG      CLEAR     66  62  87 S5        29.84R
ORANGE         PTCLDY    61  59  93 CALM      29.83S
SPRINGFIELD    CLEAR     65  64  95 S2        29.82R
WESTFIELD      CLEAR     64  61  90 NW3       29.83R
NORTH ADAMS    PTCLDY    61  56  83 VRB5      29.82R
PITTSFIELD     PTCLDY    58  56  93 N5        29.83R
$$

RIZALL-031000-
RHODE ISLAND

CITY           SKY/WX    TMP DP  RH WIND       PRES   REMARKS
PROVIDENCE     PTCLDY    70  68  93 S8        29.86S
NEWPORT        CLOUDY    71  70  96 S7        29.86F
BLOCK ISLAND     N/A     73  72  94 SW12      29.87F
SMITHFIELD     CLEAR     66  66 100 SE5       29.86S
WESTERLY       PTCLDY    71  68  90 S5        29.86F
$$

CTZALL-031000-
CONNECTICUT

CITY           SKY/WX    TMP DP  RH WIND       PRES   REMARKS
BRADLEY INTL   PTCLDY    65  62  90 S6        29.82S
HARTFORD       CLEAR     70  68  93 S6        29.82S
BRIDGEPORT     CLEAR     71  67  87 W5        29.84S
DANBURY        CLEAR     71  58  63 SW7       29.86S
GROTON         PTCLDY    65  64  97 CALM      29.85S FOG
NEW HAVEN      CLEAR     71  68  90 S3        29.85R
CHESTER        NOT AVBL
MERIDEN        CLEAR     64  62  93 CALM      29.84S
WILLIMANTIC    CLOUDY    63  61  93 CALM      29.86R FOG
OXFORD         CLEAR     68  61  77 S3        29.87S
$$

MEZ002-015-021-024-NHZ003-005-008-011-012-014-VTZ005-008-031000-
NORTHERN NEW ENGLAND

CITY           SKY/WX    TMP DP  RH WIND       PRES   REMARKS
PORTLAND ME    PTCLDY    65  60  84 S5        29.82S
BANGOR ME      PTCLDY    62  59  90 S7        29.82S
CONCORD NH     CLEAR     61  58  90 CALM      29.82S
MANCHESTER NH  PTCLDY    66  62  87 S5        29.82R
NASHUA NH      CLEAR     65  63  93 CALM      29.84R
PORTSMOUTH NH  NOT AVBL
JAFFREY NH     PTCLDY    64  62  93 CALM      29.85S
KEENE NH       PTCLDY    59  54  82 CALM      29.82F
BURLINGTON VT  MOCLDY    73  57  57 S14G22    29.69F
MT. WASHINGTON PTCLDY    49  49  99 SW36        N/A
$$

NYZ052-076-031000-
EASTERN NEW YORK

CITY           SKY/WX    TMP DP  RH WIND       PRES   REMARKS
ALBANY         MOCLDY    70  57  63 S7G17     29.77S
NEW YORK CITY  CLEAR     77  58  51 SW8       29.84R
$$

ANZALL-031000-
MARINE OBSERVATIONS

STATION/POSITION TIME  TEMP    WIND        PRES    VSBY  WAVE
                       AIR SEA DIR/SP/G                  HT/PER
                 (UTC) (F)     (DEG/KT/KT) (MB)    (MI)  (FT/S)
BOSTON BUOY      0850   70 70  200/  8/ 10 1010.8S         1/11
BUZZARDS BAY     0800          190/ 16/ 16 1012.0F
NANTUCKET SOUND  0850   74 72  210/ 10/ 12 1011.8R         1/ 2
MASS BAY-STELLWA 0804   69 67  210/  8/  8   N/A    1 7/8  2/ 4
ISLE OF SHOALS   0800   68     190/ 13/ 14 1009.6F
S OF BLOCK IS    0808      75                N/A           3/11
$$

......................KEY.........................
  SKY/WX - SKY CONDITION/PRESENT WEATHER
  TMP    - TEMPERATURE IN FAHRENHEIT
  DWPT   - DEWPOINT IN FAHRENHEIT
  RH     - RELATIVE HUMIDITY IN PERCENT
  WIND   - DIRECTION AND SPEED IN MPH
  PRES   - MEAN SEA LEVEL PRESSURE IN INCHES OF HG
  WCI    - WIND CHILL INDEX
  VSB    - VISIBILITY IN MILES
  HX     - HEAT INDEX
  TC     - TEMPERATURE IN CELSIUS
  VRB    - VARIABLE WIND DIRECTION
  N/A    - NOT AVAILABLE


USA.gov is the U.S. government's official web portal to all federal, state and local government web resources and services.